Current Version              Previous Version:    01  02  03  04  05  06  07  08  09  10  11  12  13  14  15  16  17  18  19  20  21  22  23  24  25  26  27  28  29  30  
   31  32  33  34  35  36  37  38  39  40  41  42  43  44  45  46  47  48  49  50  51  52  53  54  55  56  57  58  59  60  

[Printable]
094
ASUS44 KEWX 260402
RWRTX
SOUTH TEXAS REGIONAL WEATHER ROUNDUP
NATIONAL WEATHER SERVICE AUSTIN/SAN ANTONIO TX
1100 PM CDT SAT OCT 25 2014

NOTE: "FAIR" INDICATED FEW OR NO CLOUDS BELOW 12,000 FEET WITH NO
SIGNIFICANT WEATHER AND/OR OBSTRUCTIONS TO VISIBILITY.

* - THESE STATIONS ARE NOT NWS OR FAA STATIONS...AND ARE NOT SUBJECT
    TO NWS AND FAA QUALITY CONTROL.

TXZ171-172-183>190-260500-
TEXAS HILL COUNTRY AND EDWARDS PLATEAU

CITY           SKY/WX    TMP DP  RH WIND       PRES   REMARKS
JUNCTION       CLEAR     68  52  56 S3        30.12S
*LLANO         NOT AVBL
BURNET         CLEAR     69  56  62 CALM      30.13S
*HORSESHOE BAY CLEAR     71  55  56 S6        30.11S
*KERRVILLE     CLEAR     61  55  78 CALM      30.14S
*FREDERICKSBRG CLEAR     62  54  77 CALM      30.13S
*ROCKSPRINGS   CLEAR     66  54  63 SE5       30.17S
*BOERNE STAGE  CLEAR     61  52  72 CALM      30.14S
*CASTROVILLE   CLEAR     68  50  52 CALM      30.12S
HONDO          CLEAR     68  54  60 SE5       30.12S
*UVALDE        CLEAR     73  55  53 SE7       30.11S
DEL RIO        CLEAR     72  60  66 SE3       30.08R
LAUGHLIN AFB   CLEAR     68  60  77 E2        30.09R
CARRIZO SPRGS  CLEAR     72  54  53 SE5       30.08S
$$

TXZ173-191>194-202-209-217>225-228-260500-
CENTRAL AND SOUTH CENTRAL TEXAS

CITY           SKY/WX    TMP DP  RH WIND       PRES   REMARKS
GEORGETOWN     CLEAR     68  57  68 S3        30.10S
AUSTIN/BERGSTM CLEAR     63  57  81 S5        30.09S
AUSTIN/MABRY   CLEAR     71  59  65 CALM      30.10S
*AUSTIN/EXEC   MOCLDY    68  59  73 CALM      30.10S
*LAGO VISTA    CLEAR     73  57  56 SE5       30.12S
SAN MARCOS     CLEAR     68  54  60 SE7       30.11S
NEW BRAUNFELS  CLEAR     70  54  56 S9        30.09S
RANDOLPH AFB   CLEAR     68  55  63 S8        30.10S
PT SAN ANTONIO CLEAR     71  58  62 S10       30.09R
SAN ANTONIO    CLEAR     73  56  54 CALM      30.10S
STINSON FIELD  CLEAR     70  57  63 SE3       30.09R
*PLEASANTON    CLEAR     72  61  68 S5        30.11R
*LA GRANGE     CLEAR     71  61  70 S7        30.09S
*GIDDINGS      CLEAR     67  60  78 CALM      30.14R
*GONZALES      CLEAR     70  60  69 S6        30.10S
$$

TXZ163>164-176>182-195>201-210>213-226-227-235-260500-
SOUTHEAST TEXAS

CITY           SKY/WX    TMP DP  RH WIND       PRES   REMARKS
COLLEGE STN    CLEAR     70  61  73 S3        30.09F
*BRYAN         CLEAR     67  62  82 SE5       30.11S
*CALDWELL      CLEAR     66  63  88 CALM      30.13S
*CROCKETT      CLEAR     64  64 100 CALM      30.12S
*BRENHAM       CLEAR     70  62  76 CALM      30.11S
HUNTSVILLE     CLEAR     69  59  70 S6        30.10S
CONROE         CLEAR     61  59  93 CALM      30.11S
HOUSTON BUSH   CLEAR     67  59  75 S5        30.11S
HOUSTON HOBBY  CLEAR     66  60  81 CALM      30.11S
*HOUSTON SW AP CLEAR     56  55  99 CALM      30.11F
PEARLAND       CLEAR     63  59  87 CALM      30.12F
HOUSTON HOOKS  CLEAR     65  59  81 CALM      30.11S
ELLINGTON FLD  CLEAR     66  61  82 CALM      30.12S
SUGAR LAND     CLEAR     63  59  87 S3        30.11S
*HOUSTON EXEC  MOCLDY    63 N/A N/A S6        30.12S
*CLEVELAND MUN NOT AVBL
*WHARTON       CLEAR     63  59  86 SE3       30.12S
*COLUMBUS      FAIR      65  60  82 S3        30.10S
$$

TXZ214>216-236>238-260500-
THE UPPER TEXAS COAST

CITY           SKY/WX    TMP DP  RH WIND       PRES   REMARKS
*ORANGE        CLEAR    N/A N/A N/A CALM      30.13S HAZE
PORT ARTHUR    CLEAR     59  57  93 CALM      30.11S
GALVESTON      CLEAR     69  61  75 S6        30.12S
ANGLETON       CLEAR     59  59 100 CALM      30.11S
*BAY CITY        N/A     61  60  96 CALM      30.11S
PALACIOS       CLEAR     68  63  84 SE6       30.10S
$$

TXZ229>234-239>247-260500-
TEXAS COASTAL BEND AND RIO GRANDE PLAINS

CITY           SKY/WX    TMP DP  RH WIND       PRES   REMARKS
VICTORIA       CLEAR     66  60  81 S5        30.11S
*BEEVILLE      CLEAR     67  63  85 S5        30.11S
ROCKPORT       CLEAR     74  64  71 SE7       30.10S
*PORT ARANSAS  CLEAR     75  63  65 SE7       30.10S
*PORT LAVACA   CLEAR     65  61  85 S5        30.11S
*INGLESIDE     CLEAR     71  64  77 CALM      30.10S
CORPUS CHRISTI CLEAR     67  63  87 S6        30.10F
CORPUS NAS     CLEAR     70  65  84 SE7       30.10S
*ROBSTOWN      NOT AVBL
ALICE          CLEAR     66  62  87 S3        30.10F
KINGSVILLE NAS CLEAR     65  63  93 S6        30.10F
COTULLA        CLEAR     76  59  55 SE7       30.10R
*FAITH RANCH   CLEAR     72  54  53 SE8       30.10R
LAREDO         CLEAR     75  62  64 SE10      30.12S
$$

TXZ248>255-260500-
DEEP SOUTH TEXAS

CITY           SKY/WX    TMP DP  RH WIND       PRES   REMARKS
BROWNSVILLE    CLEAR     69  66  90 E5        30.11S
PORT ISABEL    CLEAR     71  63  75 SE8       30.10S
*SOUTH PADRE   CLEAR     75  64  69 SE10      30.11R
HARLINGEN      CLEAR     67  64  90 SE7       30.10S
*HEBBRONVILLE  CLEAR     67  60  77 S3        30.13S
MCALLEN        CLEAR     70  66  87 CALM      30.12R
*WESLACO       CLEAR     70  62  77 SE5       30.11S
FALFURRIAS     CLEAR     64  60  85 E3        30.11S
EDINBURG       CLEAR     70  64  81 CALM      30.12S
*ZAPATA        NOT AVBL
$$

TXZ213>215-236>238-242>244-246-247-251-254-255-260500-
CMAN STATIONS

STATION/POSITION TIME  TEMP    WIND        PRES    WAVE
                       AIR SEA DIR/SP/G            HT/PER
                 (UTC) (F)     (DEG/KT/KT) (MB)    (FT/S)
SABINE PASS      0300   69 73  220/  4/  5 1019.7
SEA RIM ST PARK  0300   72     210/  5/  5 1020.2
NORTH JETTY/GLS  0300   74 75  200/  7/  8   N/A
EAGLE POINT      0300   70 74  250/  3/  4 1019.7
MORGANS POINT    0300   72     200/  3/  5 1019.6
MISSION/ARANSAS  0300          130/ 10     1020.0
PORT O`CONNOR    0300          130/  9/ 11   N/A
PORT ARANSAS     0300   77 79  110/ 12/ 13 1020.1
MALAQUITE BEACH  0300   77 80  110/ 10/ 12 1018.8
BAFFIN BAY       0300   76 84  120/  5/  7 1019.5
PORT ISABEL      0300   76 79  110/  6/  8 1019.4
$$

GMZ080-GMZ150>470-260500-
OFFSHORE BUOY REPORTS

STATION/POSITION TIME  TEMP    WIND        PRES    WAVE
                       AIR SEA DIR/SP/G            HT/PER
                 (UTC) (F)     (DEG/KT/KT) (MB)    (FT/S)
20 E GALVESTON   0400   74 77  170/  4/  6 1019.4    1/ 7
90 E PT ARANSAS  0400   76 81  100/  6/  6 1020.1    2/ 8
35 NE PT MANSFLD 0300   77 80   90/  8/ 12 1019.0    2/ 8
200 E PT ISABEL  0300   76 81   50/  8/ 10 1019.4    3/ 7
$$